owner,sensor,date,latitude,longitude,vertical_datum,sea_water_temperature,qcFlag 
COMPS,ioos:station:USF.COMPS:C10:1,2008-12-03T04:00:00Z,27.1690,-82.9260,-1.0,20.8,2 
COMPS,ioos:station:USF.COMPS:C10:1,2008-12-03T04:20:00Z,27.1690,-82.9260,-1.0,20.81,2 
COMPS,ioos:station:USF.COMPS:C10:1,2008-12-03T04:40:00Z,27.1690,-82.9260,-1.0,20.82,2 
COMPS,ioos:station:USF.COMPS:C10:1,2008-12-03T05:00:00Z,27.1690,-82.9260,-1.0,20.83,2 
COMPS,ioos:station:USF.COMPS:C10:1,2008-12-03T05:20:00Z,27.1690,-82.9260,-1.0,20.84,2 
COMPS,ioos:station:USF.COMPS:C10:1,2008-12-03T05:40:00Z,27.1690,-82.9260,-1.0,20.83,2 
COMPS,ioos:station:USF.COMPS:C10:1,2008-12-03T06:00:00Z,27.1690,-82.9260,-1.0,20.83,2 
COMPS,ioos:station:USF.COMPS:C10:1,2008-12-03T06:20:00Z,27.1690,-82.9260,-1.0,20.85,2 
COMPS,ioos:station:USF.COMPS:C10:1,2008-12-03T06:40:00Z,27.1690,-82.9260,-1.0,20.78,2 
COMPS,ioos:station:USF.COMPS:C10:1,2008-12-03T07:00:00Z,27.1690,-82.9260,-1.0,20.79,2 
COMPS,ioos:station:USF.COMPS:C10:1,2008-12-03T07:20:00Z,27.1690,-82.9260,-1.0,20.79,2 
COMPS,ioos:station:USF.COMPS:C10:1,2008-12-03T07:40:00Z,27.1690,-82.9260,-1.0,20.81,2 
COMPS,ioos:station:USF.COMPS:C10:1,2008-12-03T08:00:00Z,27.1690,-82.9260,-1.0,20.81,2 
COMPS,ioos:station:USF.COMPS:C10:1,2008-12-03T08:20:00Z,27.1690,-82.9260,-1.0,20.8,2 
COMPS,ioos:station:USF.COMPS:C10:1,2008-12-03T08:40:00Z,27.1690,-82.9260,-1.0,20.79,2 
COMPS,ioos:station:USF.COMPS:C10:1,2008-12-03T09:00:00Z,27.1690,-82.9260,-1.0,20.79,2 
COMPS,ioos:station:USF.COMPS:C10:1,2008-12-03T09:20:00Z,27.1690,-82.9260,-1.0,20.8,2 
COMPS,ioos:station:USF.COMPS:C10:1,2008-12-03T09:40:00Z,27.1690,-82.9260,-1.0,20.81,2 
COMPS,ioos:station:USF.COMPS:C10:1,2008-12-03T10:00:00Z,27.1690,-82.9260,-1.0,20.79,2 
COMPS,ioos:station:USF.COMPS:C10:1,2008-12-03T10:20:00Z,27.1690,-82.9260,-1.0,20.8,2 
COMPS,ioos:station:USF.COMPS:C10:1,2008-12-03T10:40:00Z,27.1690,-82.9260,-1.0,20.78,2 
COMPS,ioos:station:USF.COMPS:C10:1,2008-12-03T11:00:00Z,27.1690,-82.9260,-1.0,20.8,2 
COMPS,ioos:station:USF.COMPS:C10:1,2008-12-03T11:20:00Z,27.1690,-82.9260,-1.0,20.79,2 
COMPS,ioos:station:USF.COMPS:C10:1,2008-12-03T11:40:00Z,27.1690,-82.9260,-1.0,20.8,2 
COMPS,ioos:station:USF.COMPS:C10:1,2008-12-03T12:00:00Z,27.1690,-82.9260,-1.0,20.8,2 
COMPS,ioos:station:USF.COMPS:C10:1,2008-12-03T12:20:00Z,27.1690,-82.9260,-1.0,20.78,2 
COMPS,ioos:station:USF.COMPS:C10:1,2008-12-03T12:40:00Z,27.1690,-82.9260,-1.0,20.79,2 
COMPS,ioos:station:USF.COMPS:C10:1,2008-12-03T13:00:00Z,27.1690,-82.9260,-1.0,20.77,2 
COMPS,ioos:station:USF.COMPS:C10:1,2008-12-03T13:20:00Z,27.1690,-82.9260,-1.0,20.77,2 
COMPS,ioos:station:USF.COMPS:C10:1,2008-12-03T13:40:00Z,27.1690,-82.9260,-1.0,20.78,2 
COMPS,ioos:station:USF.COMPS:C10:1,2008-12-03T14:00:00Z,27.1690,-82.9260,-1.0,20.79,2 
COMPS,ioos:station:USF.COMPS:C10:1,2008-12-03T14:20:00Z,27.1690,-82.9260,-1.0,20.8,2 
COMPS,ioos:station:USF.COMPS:C10:1,2008-12-03T14:40:00Z,27.1690,-82.9260,-1.0,20.8,2 
COMPS,ioos:station:USF.COMPS:C10:1,2008-12-03T15:00:00Z,27.1690,-82.9260,-1.0,20.81,2 
COMPS,ioos:station:USF.COMPS:C10:1,2008-12-03T15:20:00Z,27.1690,-82.9260,-1.0,20.81,2 
COMPS,ioos:station:USF.COMPS:C10:1,2008-12-03T15:40:00Z,27.1690,-82.9260,-1.0,20.82,2 
COMPS,ioos:station:USF.COMPS:C10:1,2008-12-03T16:00:00Z,27.1690,-82.9260,-1.0,20.83,2 
COMPS,ioos:station:USF.COMPS:C10:1,2008-12-03T16:20:00Z,27.1690,-82.9260,-1.0,20.84,2 
COMPS,ioos:station:USF.COMPS:C10:1,2008-12-03T16:40:00Z,27.1690,-82.9260,-1.0,20.86,2 
COMPS,ioos:station:USF.COMPS:C10:1,2008-12-03T17:00:00Z,27.1690,-82.9260,-1.0,20.87,2 
COMPS,ioos:station:USF.COMPS:C10:1,2008-12-03T17:20:00Z,27.1690,-82.9260,-1.0,20.9,2 
COMPS,ioos:station:USF.COMPS:C10:1,2008-12-03T17:40:00Z,27.1690,-82.9260,-1.0,20.91,2 
COMPS,ioos:station:USF.COMPS:C10:1,2008-12-03T18:00:00Z,27.1690,-82.9260,-1.0,20.93,2 
COMPS,ioos:station:USF.COMPS:C10:1,2008-12-03T18:20:00Z,27.1690,-82.9260,-1.0,20.95,2 
COMPS,ioos:station:USF.COMPS:C10:1,2008-12-03T18:40:00Z,27.1690,-82.9260,-1.0,20.97,2 
COMPS,ioos:station:USF.COMPS:C10:1,2008-12-03T19:00:00Z,27.1690,-82.9260,-1.0,21.0,2 
COMPS,ioos:station:USF.COMPS:C10:1,2008-12-03T19:20:00Z,27.1690,-82.9260,-1.0,21.02,2 
COMPS,ioos:station:USF.COMPS:C10:1,2008-12-03T19:40:00Z,27.1690,-82.9260,-1.0,21.03,2 
COMPS,ioos:station:USF.COMPS:C10:1,2008-12-03T20:00:00Z,27.1690,-82.9260,-1.0,21.05,2 
COMPS,ioos:station:USF.COMPS:C10:1,2008-12-03T20:20:00Z,27.1690,-82.9260,-1.0,21.06,2 
COMPS,ioos:station:USF.COMPS:C10:1,2008-12-03T20:40:00Z,27.1690,-82.9260,-1.0,21.06,2 
COMPS,ioos:station:USF.COMPS:C10:1,2008-12-03T21:00:00Z,27.1690,-82.9260,-1.0,21.07,2 
COMPS,ioos:station:USF.COMPS:C10:1,2008-12-03T21:20:00Z,27.1690,-82.9260,-1.0,21.08,2 
COMPS,ioos:station:USF.COMPS:C10:1,2008-12-03T21:40:00Z,27.1690,-82.9260,-1.0,21.08,2 
COMPS,ioos:station:USF.COMPS:C10:1,2008-12-03T22:00:00Z,27.1690,-82.9260,-1.0,21.08,2 
COMPS,ioos:station:USF.COMPS:C10:1,2008-12-03T22:20:00Z,27.1690,-82.9260,-1.0,21.08,2 
COMPS,ioos:station:USF.COMPS:C10:1,2008-12-03T22:40:00Z,27.1690,-82.9260,-1.0,21.09,2 
COMPS,ioos:station:USF.COMPS:C10:1,2008-12-03T23:00:00Z,27.1690,-82.9260,-1.0,21.09,2 
COMPS,ioos:station:USF.COMPS:C10:1,2008-12-03T23:20:00Z,27.1690,-82.9260,-1.0,21.08,2 
COMPS,ioos:station:USF.COMPS:C10:1,2008-12-03T23:40:00Z,27.1690,-82.9260,-1.0,21.09,2 
COMPS,ioos:station:USF.COMPS:C10:1,2008-12-04T00:00:00Z,27.1690,-82.9260,-1.0,21.08,2 
COMPS,ioos:station:USF.COMPS:C10:1,2008-12-04T00:20:00Z,27.1690,-82.9260,-1.0,21.08,2 
COMPS,ioos:station:USF.COMPS:C10:1,2008-12-04T00:40:00Z,27.1690,-82.9260,-1.0,21.08,2 
COMPS,ioos:station:USF.COMPS:C10:1,2008-12-04T01:00:00Z,27.1690,-82.9260,-1.0,21.06,2 
COMPS,ioos:station:USF.COMPS:C10:1,2008-12-04T01:20:00Z,27.1690,-82.9260,-1.0,21.07,2 
COMPS,ioos:station:USF.COMPS:C10:1,2008-12-04T01:40:00Z,27.1690,-82.9260,-1.0,21.07,2 
COMPS,ioos:station:USF.COMPS:C10:1,2008-12-04T02:00:00Z,27.1690,-82.9260,-1.0,21.06,2 
COMPS,ioos:station:USF.COMPS:C10:1,2008-12-04T02:20:00Z,27.1690,-82.9260,-1.0,21.04,2 
COMPS,ioos:station:USF.COMPS:C10:1,2008-12-04T02:40:00Z,27.1690,-82.9260,-1.0,21.05,2 
COMPS,ioos:station:USF.COMPS:C10:1,2008-12-04T03:00:00Z,27.1690,-82.9260,-1.0,21.05,2 
COMPS,ioos:station:USF.COMPS:C10:1,2008-12-04T03:20:00Z,27.1690,-82.9260,-1.0,21.05,2 
COMPS,ioos:station:USF.COMPS:C10:1,2008-12-04T03:40:00Z,27.1690,-82.9260,-1.0,21.06,2 
COMPS,ioos:station:USF.COMPS:C10:1,2008-12-04T04:00:00Z,27.1690,-82.9260,-1.0,21.07,2 
COMPS,ioos:station:USF.COMPS:C10:1,2008-12-04T04:20:00Z,27.1690,-82.9260,-1.0,21.06,2 
COMPS,ioos:station:USF.COMPS:C10:1,2008-12-04T04:40:00Z,27.1690,-82.9260,-1.0,21.07,2 
COMPS,ioos:station:USF.COMPS:C10:1,2008-12-04T05:00:00Z,27.1690,-82.9260,-1.0,21.07,2 
COMPS,ioos:station:USF.COMPS:C10:1,2008-12-04T05:20:00Z,27.1690,-82.9260,-1.0,21.08,2 
COMPS,ioos:station:USF.COMPS:C10:1,2008-12-04T05:40:00Z,27.1690,-82.9260,-1.0,21.07,2 
COMPS,ioos:station:USF.COMPS:C10:1,2008-12-04T06:00:00Z,27.1690,-82.9260,-1.0,21.07,2 
COMPS,ioos:station:USF.COMPS:C10:1,2008-12-04T06:20:00Z,27.1690,-82.9260,-1.0,21.07,2 
COMPS,ioos:station:USF.COMPS:C10:1,2008-12-04T06:40:00Z,27.1690,-82.9260,-1.0,21.07,2 
COMPS,ioos:station:USF.COMPS:C10:1,2008-12-04T07:00:00Z,27.1690,-82.9260,-1.0,21.07,2 
COMPS,ioos:station:USF.COMPS:C10:1,2008-12-04T07:20:00Z,27.1690,-82.9260,-1.0,21.07,2 
COMPS,ioos:station:USF.COMPS:C10:1,2008-12-04T07:40:00Z,27.1690,-82.9260,-1.0,21.07,2 
COMPS,ioos:station:USF.COMPS:C10:1,2008-12-04T08:00:00Z,27.1690,-82.9260,-1.0,21.07,2 
COMPS,ioos:station:USF.COMPS:C10:1,2008-12-04T08:20:00Z,27.1690,-82.9260,-1.0,21.07,2 
COMPS,ioos:station:USF.COMPS:C10:1,2008-12-04T08:40:00Z,27.1690,-82.9260,-1.0,21.06,2 
COMPS,ioos:station:USF.COMPS:C10:1,2008-12-04T09:00:00Z,27.1690,-82.9260,-1.0,21.06,2 
COMPS,ioos:station:USF.COMPS:C10:1,2008-12-04T09:20:00Z,27.1690,-82.9260,-1.0,21.05,2 
COMPS,ioos:station:USF.COMPS:C10:1,2008-12-04T09:40:00Z,27.1690,-82.9260,-1.0,21.04,2 
COMPS,ioos:station:USF.COMPS:C10:1,2008-12-04T10:00:00Z,27.1690,-82.9260,-1.0,21.04,2 
COMPS,ioos:station:USF.COMPS:C10:1,2008-12-04T10:20:00Z,27.1690,-82.9260,-1.0,21.04,2 
COMPS,ioos:station:USF.COMPS:C10:1,2008-12-04T10:40:00Z,27.1690,-82.9260,-1.0,21.03,2 
COMPS,ioos:station:USF.COMPS:C10:1,2008-12-04T11:00:00Z,27.1690,-82.9260,-1.0,21.03,2 
COMPS,ioos:station:USF.COMPS:C10:1,2008-12-04T11:20:00Z,27.1690,-82.9260,-1.0,21.02,2 
COMPS,ioos:station:USF.COMPS:C10:1,2008-12-04T11:40:00Z,27.1690,-82.9260,-1.0,21.02,2 
COMPS,ioos:station:USF.COMPS:C10:1,2008-12-04T12:00:00Z,27.1690,-82.9260,-1.0,21.01,2 
COMPS,ioos:station:USF.COMPS:C10:1,2008-12-04T12:20:00Z,27.1690,-82.9260,-1.0,21.0,2 
COMPS,ioos:station:USF.COMPS:C10:1,2008-12-04T12:40:00Z,27.1690,-82.9260,-1.0,21.0,2 
COMPS,ioos:station:USF.COMPS:C10:1,2008-12-04T13:00:00Z,27.1690,-82.9260,-1.0,21.0,2 
COMPS,ioos:station:USF.COMPS:C10:1,2008-12-04T13:20:00Z,27.1690,-82.9260,-1.0,21.0,2 
COMPS,ioos:station:USF.COMPS:C10:1,2008-12-04T13:40:00Z,27.1690,-82.9260,-1.0,21.0,2 
COMPS,ioos:station:USF.COMPS:C10:1,2008-12-04T14:00:00Z,27.1690,-82.9260,-1.0,20.99,2 
COMPS,ioos:station:USF.COMPS:C10:1,2008-12-04T14:20:00Z,27.1690,-82.9260,-1.0,20.99,2 
COMPS,ioos:station:USF.COMPS:C10:1,2008-12-04T14:40:00Z,27.1690,-82.9260,-1.0,20.99,2 
COMPS,ioos:station:USF.COMPS:C10:1,2008-12-04T15:00:00Z,27.1690,-82.9260,-1.0,20.99,2 
COMPS,ioos:station:USF.COMPS:C10:1,2008-12-04T15:20:00Z,27.1690,-82.9260,-1.0,21.0,2 
COMPS,ioos:station:USF.COMPS:C10:1,2008-12-04T15:40:00Z,27.1690,-82.9260,-1.0,21.0,2 
COMPS,ioos:station:USF.COMPS:C10:1,2008-12-04T16:00:00Z,27.1690,-82.9260,-1.0,21.01,2 
COMPS,ioos:station:USF.COMPS:C10:1,2008-12-04T16:20:00Z,27.1690,-82.9260,-1.0,21.02,2 
COMPS,ioos:station:USF.COMPS:C10:1,2008-12-04T16:40:00Z,27.1690,-82.9260,-1.0,21.04,2 
COMPS,ioos:station:USF.COMPS:C10:1,2008-12-04T17:00:00Z,27.1690,-82.9260,-1.0,21.06,2 
COMPS,ioos:station:USF.COMPS:C10:1,2008-12-04T17:20:00Z,27.1690,-82.9260,-1.0,21.07,2 
COMPS,ioos:station:USF.COMPS:C10:1,2008-12-04T17:40:00Z,27.1690,-82.9260,-1.0,21.06,2 
COMPS,ioos:station:USF.COMPS:C10:1,2008-12-04T18:00:00Z,27.1690,-82.9260,-1.0,21.08,2 
COMPS,ioos:station:USF.COMPS:C10:1,2008-12-04T18:20:00Z,27.1690,-82.9260,-1.0,21.08,2 
COMPS,ioos:station:USF.COMPS:C10:1,2008-12-04T18:40:00Z,27.1690,-82.9260,-1.0,21.09,2 
COMPS,ioos:station:USF.COMPS:C10:1,2008-12-04T19:00:00Z,27.1690,-82.9260,-1.0,21.09,2 
COMPS,ioos:station:USF.COMPS:C10:1,2008-12-04T19:20:00Z,27.1690,-82.9260,-1.0,21.12,2 
COMPS,ioos:station:USF.COMPS:C10:1,2008-12-04T19:40:00Z,27.1690,-82.9260,-1.0,21.14,2 
COMPS,ioos:station:USF.COMPS:C10:1,2008-12-04T20:00:00Z,27.1690,-82.9260,-1.0,21.13,2 
COMPS,ioos:station:USF.COMPS:C10:1,2008-12-04T20:20:00Z,27.1690,-82.9260,-1.0,21.15,2 
COMPS,ioos:station:USF.COMPS:C10:1,2008-12-04T20:40:00Z,27.1690,-82.9260,-1.0,21.17,2 
COMPS,ioos:station:USF.COMPS:C10:1,2008-12-04T21:00:00Z,27.1690,-82.9260,-1.0,21.19,2 
COMPS,ioos:station:USF.COMPS:C10:1,2008-12-04T21:20:00Z,27.1690,-82.9260,-1.0,21.2,2 
COMPS,ioos:station:USF.COMPS:C10:1,2008-12-04T21:40:00Z,27.1690,-82.9260,-1.0,21.24,2 
COMPS,ioos:station:USF.COMPS:C10:1,2008-12-04T22:00:00Z,27.1690,-82.9260,-1.0,21.24,2 
COMPS,ioos:station:USF.COMPS:C10:1,2008-12-04T22:20:00Z,27.1690,-82.9260,-1.0,21.23,2 
COMPS,ioos:station:USF.COMPS:C10:1,2008-12-04T22:40:00Z,27.1690,-82.9260,-1.0,21.23,2 
COMPS,ioos:station:USF.COMPS:C10:1,2008-12-04T23:00:00Z,27.1690,-82.9260,-1.0,21.27,2 
COMPS,ioos:station:USF.COMPS:C10:1,2008-12-04T23:20:00Z,27.1690,-82.9260,-1.0,21.27,2 
COMPS,ioos:station:USF.COMPS:C10:1,2008-12-04T23:40:00Z,27.1690,-82.9260,-1.0,21.27,2 
COMPS,ioos:station:USF.COMPS:C10:1,2008-12-05T00:00:00Z,27.1690,-82.9260,-1.0,21.26,2 
COMPS,ioos:station:USF.COMPS:C10:1,2008-12-05T00:20:00Z,27.1690,-82.9260,-1.0,21.25,2 
COMPS,ioos:station:USF.COMPS:C10:1,2008-12-05T00:40:00Z,27.1690,-82.9260,-1.0,21.25,2 
COMPS,ioos:station:USF.COMPS:C10:1,2008-12-05T01:00:00Z,27.1690,-82.9260,-1.0,21.23,2 
COMPS,ioos:station:USF.COMPS:C10:1,2008-12-05T01:20:00Z,27.1690,-82.9260,-1.0,21.23,2 
COMPS,ioos:station:USF.COMPS:C10:1,2008-12-05T01:40:00Z,27.1690,-82.9260,-1.0,21.22,2 
COMPS,ioos:station:USF.COMPS:C10:1,2008-12-05T02:00:00Z,27.1690,-82.9260,-1.0,21.21,2 
COMPS,ioos:station:USF.COMPS:C10:1,2008-12-05T02:20:00Z,27.1690,-82.9260,-1.0,21.2,2 
COMPS,ioos:station:USF.COMPS:C10:1,2008-12-05T02:40:00Z,27.1690,-82.9260,-1.0,21.19,2 
COMPS,ioos:station:USF.COMPS:C10:1,2008-12-05T03:00:00Z,27.1690,-82.9260,-1.0,21.19,2 
COMPS,ioos:station:USF.COMPS:C10:1,2008-12-05T03:20:00Z,27.1690,-82.9260,-1.0,21.18,2 
COMPS,ioos:station:USF.COMPS:C10:1,2008-12-05T03:40:00Z,27.1690,-82.9260,-1.0,21.17,2 
COMPS,ioos:station:USF.COMPS:C10:1,2008-12-05T04:00:00Z,27.1690,-82.9260,-1.0,21.17,2 
COMPS,ioos:station:USF.COMPS:C10:1,2008-12-05T04:20:00Z,27.1690,-82.9260,-1.0,21.16,2 
COMPS,ioos:station:USF.COMPS:C10:1,2008-12-05T04:40:00Z,27.1690,-82.9260,-1.0,21.16,2 
COMPS,ioos:station:USF.COMPS:C10:1,2008-12-05T05:00:00Z,27.1690,-82.9260,-1.0,21.17,2 
COMPS,ioos:station:USF.COMPS:C10:1,2008-12-05T05:20:00Z,27.1690,-82.9260,-1.0,21.17,2 
COMPS,ioos:station:USF.COMPS:C10:1,2008-12-05T05:40:00Z,27.1690,-82.9260,-1.0,21.17,2 
COMPS,ioos:station:USF.COMPS:C10:1,2008-12-05T06:00:00Z,27.1690,-82.9260,-1.0,21.18,2 
COMPS,ioos:station:USF.COMPS:C10:1,2008-12-05T06:20:00Z,27.1690,-82.9260,-1.0,21.17,2 
COMPS,ioos:station:USF.COMPS:C10:1,2008-12-05T06:40:00Z,27.1690,-82.9260,-1.0,21.17,2 
COMPS,ioos:station:USF.COMPS:C10:1,2008-12-05T07:00:00Z,27.1690,-82.9260,-1.0,21.17,2 
COMPS,ioos:station:USF.COMPS:C10:1,2008-12-05T07:20:00Z,27.1690,-82.9260,-1.0,21.18,2 
COMPS,ioos:station:USF.COMPS:C10:1,2008-12-05T07:40:00Z,27.1690,-82.9260,-1.0,21.17,2 
COMPS,ioos:station:USF.COMPS:C10:1,2008-12-05T08:00:00Z,27.1690,-82.9260,-1.0,21.18,2 
COMPS,ioos:station:USF.COMPS:C10:1,2008-12-05T08:20:00Z,27.1690,-82.9260,-1.0,21.19,2 
COMPS,ioos:station:USF.COMPS:C10:1,2008-12-05T08:40:00Z,27.1690,-82.9260,-1.0,21.21,2 
COMPS,ioos:station:USF.COMPS:C10:1,2008-12-05T09:00:00Z,27.1690,-82.9260,-1.0,21.19,2 
COMPS,ioos:station:USF.COMPS:C10:1,2008-12-05T09:20:00Z,27.1690,-82.9260,-1.0,21.19,2 
COMPS,ioos:station:USF.COMPS:C10:1,2008-12-05T09:40:00Z,27.1690,-82.9260,-1.0,21.19,2 
COMPS,ioos:station:USF.COMPS:C10:1,2008-12-05T10:00:00Z,27.1690,-82.9260,-1.0,21.2,2 
COMPS,ioos:station:USF.COMPS:C10:1,2008-12-05T10:20:00Z,27.1690,-82.9260,-1.0,21.21,2 
COMPS,ioos:station:USF.COMPS:C10:1,2008-12-05T10:40:00Z,27.1690,-82.9260,-1.0,21.21,2 
COMPS,ioos:station:USF.COMPS:C10:1,2008-12-05T11:00:00Z,27.1690,-82.9260,-1.0,21.21,2 
COMPS,ioos:station:USF.COMPS:C10:1,2008-12-05T11:20:00Z,27.1690,-82.9260,-1.0,21.21,2 
COMPS,ioos:station:USF.COMPS:C10:1,2008-12-05T11:40:00Z,27.1690,-82.9260,-1.0,21.22,2 
COMPS,ioos:station:USF.COMPS:C10:1,2008-12-05T12:00:00Z,27.1690,-82.9260,-1.0,21.21,2 
COMPS,ioos:station:USF.COMPS:C10:1,2008-12-05T12:20:00Z,27.1690,-82.9260,-1.0,21.2,2 
COMPS,ioos:station:USF.COMPS:C10:1,2008-12-05T12:40:00Z,27.1690,-82.9260,-1.0,21.2,2 
COMPS,ioos:station:USF.COMPS:C10:1,2008-12-05T13:00:00Z,27.1690,-82.9260,-1.0,21.19,2 
COMPS,ioos:station:USF.COMPS:C10:1,2008-12-05T13:20:00Z,27.1690,-82.9260,-1.0,21.19,2 
COMPS,ioos:station:USF.COMPS:C10:1,2008-12-05T13:40:00Z,27.1690,-82.9260,-1.0,21.18,2 
COMPS,ioos:station:USF.COMPS:C10:1,2008-12-05T14:00:00Z,27.1690,-82.9260,-1.0,21.18,2 
COMPS,ioos:station:USF.COMPS:C10:1,2008-12-05T14:20:00Z,27.1690,-82.9260,-1.0,21.18,2 
COMPS,ioos:station:USF.COMPS:C10:1,2008-12-05T14:40:00Z,27.1690,-82.9260,-1.0,21.18,2 
COMPS,ioos:station:USF.COMPS:C10:1,2008-12-05T15:00:00Z,27.1690,-82.9260,-1.0,21.17,2 
COMPS,ioos:station:USF.COMPS:C10:1,2008-12-05T15:20:00Z,27.1690,-82.9260,-1.0,21.19,2 
COMPS,ioos:station:USF.COMPS:C10:1,2008-12-05T15:40:00Z,27.1690,-82.9260,-1.0,21.21,2 
COMPS,ioos:station:USF.COMPS:C10:1,2008-12-05T16:00:00Z,27.1690,-82.9260,-1.0,21.22,2 
COMPS,ioos:station:USF.COMPS:C10:1,2008-12-05T16:20:00Z,27.1690,-82.9260,-1.0,21.21,2 
COMPS,ioos:station:USF.COMPS:C10:1,2008-12-05T16:40:00Z,27.1690,-82.9260,-1.0,21.23,2 
COMPS,ioos:station:USF.COMPS:C10:1,2008-12-05T17:00:00Z,27.1690,-82.9260,-1.0,21.25,2 
COMPS,ioos:station:USF.COMPS:C10:1,2008-12-05T17:20:00Z,27.1690,-82.9260,-1.0,21.29,2 
COMPS,ioos:station:USF.COMPS:C10:1,2008-12-05T17:40:00Z,27.1690,-82.9260,-1.0,21.29,2 
COMPS,ioos:station:USF.COMPS:C10:1,2008-12-05T18:00:00Z,27.1690,-82.9260,-1.0,21.3,2 
COMPS,ioos:station:USF.COMPS:C10:1,2008-12-05T18:20:00Z,27.1690,-82.9260,-1.0,21.31,2 
COMPS,ioos:station:USF.COMPS:C10:1,2008-12-05T18:40:00Z,27.1690,-82.9260,-1.0,21.32,2 
COMPS,ioos:station:USF.COMPS:C10:1,2008-12-05T19:00:00Z,27.1690,-82.9260,-1.0,21.34,2 
COMPS,ioos:station:USF.COMPS:C10:1,2008-12-05T19:20:00Z,27.1690,-82.9260,-1.0,21.35,2 
COMPS,ioos:station:USF.COMPS:C10:1,2008-12-05T19:40:00Z,27.1690,-82.9260,-1.0,21.36,2 
COMPS,ioos:station:USF.COMPS:C10:1,2008-12-05T20:00:00Z,27.1690,-82.9260,-1.0,21.37,2 
COMPS,ioos:station:USF.COMPS:C10:1,2008-12-05T20:20:00Z,27.1690,-82.9260,-1.0,21.37,2 
COMPS,ioos:station:USF.COMPS:C10:1,2008-12-05T20:40:00Z,27.1690,-82.9260,-1.0,21.37,2 
COMPS,ioos:station:USF.COMPS:C10:1,2008-12-05T21:00:00Z,27.1690,-82.9260,-1.0,21.37,2 
COMPS,ioos:station:USF.COMPS:C10:1,2008-12-05T21:20:00Z,27.1690,-82.9260,-1.0,21.36,2 
COMPS,ioos:station:USF.COMPS:C10:1,2008-12-05T21:40:00Z,27.1690,-82.9260,-1.0,21.36,2 
COMPS,ioos:station:USF.COMPS:C10:1,2008-12-05T22:00:00Z,27.1690,-82.9260,-1.0,21.37,2 
COMPS,ioos:station:USF.COMPS:C10:1,2008-12-05T22:20:00Z,27.1690,-82.9260,-1.0,21.37,2 
COMPS,ioos:station:USF.COMPS:C10:1,2008-12-05T22:40:00Z,27.1690,-82.9260,-1.0,21.35,2 
COMPS,ioos:station:USF.COMPS:C10:1,2008-12-05T23:00:00Z,27.1690,-82.9260,-1.0,21.33,2 
COMPS,ioos:station:USF.COMPS:C10:1,2008-12-05T23:20:00Z,27.1690,-82.9260,-1.0,21.32,2 
COMPS,ioos:station:USF.COMPS:C10:1,2008-12-05T23:40:00Z,27.1690,-82.9260,-1.0,21.34,2 
COMPS,ioos:station:USF.COMPS:C10:1,2008-12-06T00:00:00Z,27.1690,-82.9260,-1.0,21.34,2 
COMPS,ioos:station:USF.COMPS:C10:1,2008-12-06T00:20:00Z,27.1690,-82.9260,-1.0,21.35,2 
COMPS,ioos:station:USF.COMPS:C10:1,2008-12-06T00:40:00Z,27.1690,-82.9260,-1.0,21.34,2 
COMPS,ioos:station:USF.COMPS:C10:1,2008-12-06T01:00:00Z,27.1690,-82.9260,-1.0,21.34,2 
COMPS,ioos:station:USF.COMPS:C10:1,2008-12-06T01:20:00Z,27.1690,-82.9260,-1.0,21.33,2 
COMPS,ioos:station:USF.COMPS:C10:1,2008-12-06T01:40:00Z,27.1690,-82.9260,-1.0,21.36,2 
COMPS,ioos:station:USF.COMPS:C10:1,2008-12-06T02:00:00Z,27.1690,-82.9260,-1.0,21.35,2 
COMPS,ioos:station:USF.COMPS:C10:1,2008-12-06T02:20:00Z,27.1690,-82.9260,-1.0,21.36,2 
COMPS,ioos:station:USF.COMPS:C10:1,2008-12-06T02:40:00Z,27.1690,-82.9260,-1.0,21.35,2 
COMPS,ioos:station:USF.COMPS:C10:1,2008-12-06T03:00:00Z,27.1690,-82.9260,-1.0,21.39,2 
COMPS,ioos:station:USF.COMPS:C10:1,2008-12-06T03:20:00Z,27.1690,-82.9260,-1.0,21.41,2 
COMPS,ioos:station:USF.COMPS:C10:1,2008-12-06T03:40:00Z,27.1690,-82.9260,-1.0,21.33,2 
COMPS,ioos:station:USF.COMPS:C10:1,2008-12-06T04:20:00Z,27.1690,-82.9260,-1.0,21.34,2 
COMPS,ioos:station:USF.COMPS:C10:1,2008-12-06T05:00:00Z,27.1690,-82.9260,-1.0,21.4,2 
COMPS,ioos:station:USF.COMPS:C10:1,2008-12-06T05:40:00Z,27.1690,-82.9260,-1.0,21.36,2 
COMPS,ioos:station:USF.COMPS:C10:1,2008-12-06T06:00:00Z,27.1690,-82.9260,-1.0,21.34,2 
COMPS,ioos:station:USF.COMPS:C10:1,2008-12-06T06:20:00Z,27.1690,-82.9260,-1.0,21.35,2 
COMPS,ioos:station:USF.COMPS:C10:1,2008-12-06T06:40:00Z,27.1690,-82.9260,-1.0,21.34,2 
COMPS,ioos:station:USF.COMPS:C10:1,2008-12-06T07:00:00Z,27.1690,-82.9260,-1.0,21.34,2 
COMPS,ioos:station:USF.COMPS:C10:1,2008-12-06T07:20:00Z,27.1690,-82.9260,-1.0,21.33,2 
COMPS,ioos:station:USF.COMPS:C10:1,2008-12-06T07:40:00Z,27.1690,-82.9260,-1.0,21.32,2 
COMPS,ioos:station:USF.COMPS:C10:1,2008-12-06T08:00:00Z,27.1690,-82.9260,-1.0,21.31,2 
COMPS,ioos:station:USF.COMPS:C10:1,2008-12-06T08:20:00Z,27.1690,-82.9260,-1.0,21.3,2 
COMPS,ioos:station:USF.COMPS:C10:1,2008-12-06T08:40:00Z,27.1690,-82.9260,-1.0,21.3,2 
COMPS,ioos:station:USF.COMPS:C10:1,2008-12-06T09:00:00Z,27.1690,-82.9260,-1.0,21.29,2 
COMPS,ioos:station:USF.COMPS:C10:1,2008-12-06T09:20:00Z,27.1690,-82.9260,-1.0,21.28,2 
COMPS,ioos:station:USF.COMPS:C10:1,2008-12-06T09:40:00Z,27.1690,-82.9260,-1.0,21.28,2 
COMPS,ioos:station:USF.COMPS:C10:1,2008-12-06T10:00:00Z,27.1690,-82.9260,-1.0,21.28,2 
COMPS,ioos:station:USF.COMPS:C10:1,2008-12-06T10:20:00Z,27.1690,-82.9260,-1.0,21.28,2 
COMPS,ioos:station:USF.COMPS:C10:1,2008-12-06T10:40:00Z,27.1690,-82.9260,-1.0,21.27,2 
COMPS,ioos:station:USF.COMPS:C10:1,2008-12-06T11:00:00Z,27.1690,-82.9260,-1.0,21.26,2 
COMPS,ioos:station:USF.COMPS:C10:1,2008-12-06T11:20:00Z,27.1690,-82.9260,-1.0,21.25,2 
COMPS,ioos:station:USF.COMPS:C10:1,2008-12-06T12:40:00Z,27.1690,-82.9260,-1.0,21.22,2 
COMPS,ioos:station:USF.COMPS:C10:1,2008-12-06T13:00:00Z,27.1690,-82.9260,-1.0,21.23,2 
COMPS,ioos:station:USF.COMPS:C10:1,2008-12-06T13:20:00Z,27.1690,-82.9260,-1.0,21.22,2 
COMPS,ioos:station:USF.COMPS:C10:1,2008-12-06T13:40:00Z,27.1690,-82.9260,-1.0,21.21,2 
COMPS,ioos:station:USF.COMPS:C10:1,2008-12-06T14:00:00Z,27.1690,-82.9260,-1.0,21.21,2 
COMPS,ioos:station:USF.COMPS:C10:1,2008-12-06T14:20:00Z,27.1690,-82.9260,-1.0,21.21,2 
COMPS,ioos:station:USF.COMPS:C10:1,2008-12-06T14:40:00Z,27.1690,-82.9260,-1.0,21.2,2 
COMPS,ioos:station:USF.COMPS:C10:1,2008-12-06T15:00:00Z,27.1690,-82.9260,-1.0,21.2,2 
COMPS,ioos:station:USF.COMPS:C10:1,2008-12-06T15:20:00Z,27.1690,-82.9260,-1.0,21.2,2 
COMPS,ioos:station:USF.COMPS:C10:1,2008-12-06T15:40:00Z,27.1690,-82.9260,-1.0,21.2,2 
COMPS,ioos:station:USF.COMPS:C10:1,2008-12-06T16:00:00Z,27.1690,-82.9260,-1.0,21.21,2 
COMPS,ioos:station:USF.COMPS:C10:1,2008-12-06T16:20:00Z,27.1690,-82.9260,-1.0,21.22,2 
COMPS,ioos:station:USF.COMPS:C10:1,2008-12-06T16:40:00Z,27.1690,-82.9260,-1.0,21.23,2 
COMPS,ioos:station:USF.COMPS:C10:1,2008-12-06T17:00:00Z,27.1690,-82.9260,-1.0,21.23,2 
COMPS,ioos:station:USF.COMPS:C10:1,2008-12-06T17:20:00Z,27.1690,-82.9260,-1.0,21.24,2 
COMPS,ioos:station:USF.COMPS:C10:1,2008-12-06T17:40:00Z,27.1690,-82.9260,-1.0,21.26,2 
COMPS,ioos:station:USF.COMPS:C10:1,2008-12-06T18:00:00Z,27.1690,-82.9260,-1.0,21.28,2 
COMPS,ioos:station:USF.COMPS:C10:1,2008-12-06T18:20:00Z,27.1690,-82.9260,-1.0,21.31,2 
COMPS,ioos:station:USF.COMPS:C10:1,2008-12-06T18:40:00Z,27.1690,-82.9260,-1.0,21.33,2 
COMPS,ioos:station:USF.COMPS:C10:1,2008-12-06T19:00:00Z,27.1690,-82.9260,-1.0,21.37,2 
COMPS,ioos:station:USF.COMPS:C10:1,2008-12-06T19:20:00Z,27.1690,-82.9260,-1.0,21.38,2 
COMPS,ioos:station:USF.COMPS:C10:1,2008-12-06T19:40:00Z,27.1690,-82.9260,-1.0,21.44,2 
COMPS,ioos:station:USF.COMPS:C10:1,2008-12-06T20:00:00Z,27.1690,-82.9260,-1.0,21.4,2 
COMPS,ioos:station:USF.COMPS:C10:1,2008-12-06T20:20:00Z,27.1690,-82.9260,-1.0,21.45,2 
COMPS,ioos:station:USF.COMPS:C10:1,2008-12-06T20:40:00Z,27.1690,-82.9260,-1.0,21.46,2 
COMPS,ioos:station:USF.COMPS:C10:1,2008-12-06T21:00:00Z,27.1690,-82.9260,-1.0,21.47,2 
COMPS,ioos:station:USF.COMPS:C10:1,2008-12-06T21:20:00Z,27.1690,-82.9260,-1.0,21.47,2 
COMPS,ioos:station:USF.COMPS:C10:1,2008-12-06T21:40:00Z,27.1690,-82.9260,-1.0,21.48,2 
COMPS,ioos:station:USF.COMPS:C10:1,2008-12-06T22:00:00Z,27.1690,-82.9260,-1.0,21.48,2 
COMPS,ioos:station:USF.COMPS:C10:1,2008-12-06T22:20:00Z,27.1690,-82.9260,-1.0,21.5,2 
COMPS,ioos:station:USF.COMPS:C10:1,2008-12-06T22:40:00Z,27.1690,-82.9260,-1.0,21.5,2 
COMPS,ioos:station:USF.COMPS:C10:1,2008-12-06T23:00:00Z,27.1690,-82.9260,-1.0,21.5,2 
COMPS,ioos:station:USF.COMPS:C10:1,2008-12-06T23:20:00Z,27.1690,-82.9260,-1.0,21.48,2 
COMPS,ioos:station:USF.COMPS:C10:1,2008-12-06T23:40:00Z,27.1690,-82.9260,-1.0,21.46,2 
COMPS,ioos:station:USF.COMPS:C10:1,2008-12-07T00:00:00Z,27.1690,-82.9260,-1.0,21.47,2 
COMPS,ioos:station:USF.COMPS:C10:1,2008-12-07T00:20:00Z,27.1690,-82.9260,-1.0,21.49,2 
COMPS,ioos:station:USF.COMPS:C10:1,2008-12-07T00:40:00Z,27.1690,-82.9260,-1.0,21.54,2 
COMPS,ioos:station:USF.COMPS:C10:1,2008-12-07T01:00:00Z,27.1690,-82.9260,-1.0,21.53,2 
COMPS,ioos:station:USF.COMPS:C10:1,2008-12-07T01:20:00Z,27.1690,-82.9260,-1.0,21.52,2 